This is the latest recevied weather packets stored in our database for station/object WC4PEM-11. If no packets are shown the sender has not sent any weather packets the latest 10 day(s).
| Time | Temp. | Humidity | Pressure | Rain* | Wind** | Luminosity | Snow |
|---|---|---|---|---|---|---|---|
| 1787788998 | 23.33° C | 93% | 1016.3 hPa | 0 mm | - | - | - |
| 1787788812 | 23.33° C | 93% | 1016.4 hPa | 0 mm | - | - | - |
| 1787788698 | 23.33° C | 93% | 1016.4 hPa | 0 mm | - | - | - |
| 1787788398 | 23.33° C | 93% | 1016.3 hPa | 0 mm | - | - | - |
| 1787788098 | 23.89° C | 92% | 1016.3 hPa | 0 mm | - | - | - |
| 1787787798 | 23.89° C | 92% | 1016.5 hPa | 0 mm | - | - | - |
| 1787787608 | 23.89° C | 91% | 1016.4 hPa | 0 mm | - | - | - |
| 1787787565 | 23.89° C | 91% | 1016.4 hPa | 0 mm | - | - | - |
| 1787787498 | 23.89° C | 91% | 1016.4 hPa | 0 mm | - | - | - |
| 1787787198 | 23.89° C | 90% | 1016.2 hPa | 0 mm | - | - | - |
| 1787786898 | 24.44° C | 90% | 1016.2 hPa | 0 mm | - | - | - |
| 1787786598 | 24.44° C | 89% | 1015.9 hPa | 0 mm | - | - | - |
| 1787786412 | 25° C | 87% | 1015.9 hPa | 0 mm | - | - | - |
| 1787786298 | 25° C | 87% | 1015.9 hPa | 0 mm | - | - | - |
| 1787785998 | 25.56° C | 86% | 1016.2 hPa | 0 mm | - | - | - |
| 1787785698 | 26.11° C | 84% | 1016.3 hPa | 0 mm | - | - | - |
| 1787785398 | 26.67° C | 82% | 1016.2 hPa | 0 mm | - | - | - |
| 1787785098 | 27.22° C | 82% | 1016.4 hPa | 0 mm | - | - | - |
| 1787784798 | 27.78° C | 79% | 1016.2 hPa | 0 mm | - | - | - |
| 1787784498 | 28.33° C | 77% | 1015.8 hPa | 0 mm | - | - | - |
| 1787784198 | 28.89° C | 73% | 1015.7 hPa | 0 mm | - | - | - |
| 1787783898 | 30° C | 72% | 1015.5 hPa | 0 mm | - | - | - |
| 1787783598 | 30.56° C | 72% | 1015.3 hPa | 0 mm | - | - | - |
| 1787783298 | 30.56° C | 70% | 1014.8 hPa | 0 mm | - | - | - |
| 1787782998 | 30.56° C | 69% | 1014.7 hPa | 0 mm | - | - | - |
* Rain latest hour (hover to see other rain measurements)
** Current wind speed in m/s (hover to see current wind gust speed)